Location: Stoke Bliss
(52.2667°N, 2.5167°W)
Time: 09:16:41
(UTC+00:00)

Envisat - Pass Details

Date: 03 December 2021
Orbit: 764 x 766 km, 98.2° (Epoch: 25 January)

Event Time Altitude Azimuth Distance (km) Brightness Sun altitude
Rises 17:27:51 0° 207° (SSW) 3,223 7.0 -12.7°
Reaches altitude 10° 17:30:44 10° 224° (SW) 2,302 6.5 -13.1°
Maximum altitude 17:34:27 20° 271° (W) 1,708 5.8 -13.6°
Drops below altitude 10° 17:38:12 10° 319° (NW) 2,316 5.8 -14.2°
Sets 17:41:07 0° 336° (NNW) 3,248 6.3 -14.6°
